Overview Statistics Trail Chart Weather Telemetry Raw packets
 

This is the latest recevied weather packets stored in our database for station/object 4S6DRJ-13. If no packets are shown the sender has not sent any weather packets the latest 10 day(s).

<< 246 247 248 249 250 251 252 >>
Time Temp. Humidity Pressure Rain* Wind** Luminosity Snow
1788105156 28.33° C 82% 1010.8 hPa 0 mm 1.34 m/s, 206° 0 W/m² -
1788105105 28.33° C 82% 1010.8 hPa 0 mm 1.34 m/s, 273° 0 W/m² -
1788105033 28.33° C 82% 1010.9 hPa 0 mm 0.89 m/s, 313° 0 W/m² -
1788104973 28.33° C 82% 1010.8 hPa 0 mm 1.79 m/s, 226° 0 W/m² -
1788104912 28.33° C 82% 1010.9 hPa 0 mm 1.34 m/s, 249° 0 W/m² -
1788104851 28.33° C 82% 1010.9 hPa 0 mm 0.89 m/s, 270° 0 W/m² -
1788104790 28.33° C 82% 1010.8 hPa 0 mm 0.45 m/s, 222° 0 W/m² -
1788104728 28.33° C 82% 1010.9 hPa 0 mm 1.34 m/s, 211° 0 W/m² -
1788104667 28.33° C 82% 1010.7 hPa 0 mm 0.45 m/s, 233° 0 W/m² -
1788104607 28.33° C 82% 1011 hPa 0 mm 1.79 m/s, 241° 0 W/m² -
1788104546 28.33° C 82% 1010.8 hPa 0 mm 1.34 m/s, 159° 0 W/m² -
1788104485 28.33° C 82% 1010.8 hPa 0 mm 1.34 m/s, 224° 0 W/m² -
1788104424 28.33° C 82% 1010.7 hPa 0 mm 0.45 m/s, 230° 0 W/m² -
1788104363 28.33° C 82% 1010.6 hPa 0 mm 0.89 m/s, 180° 0 W/m² -
1788104302 28.33° C 82% 1010.8 hPa 0 mm 0.89 m/s, 252° 0 W/m² -
1788104241 28.33° C 82% 1010.7 hPa 0 mm 0.89 m/s, 281° 0 W/m² -
1788104180 28.33° C 82% 1010.6 hPa 0 mm 2.24 m/s, 238° 0 W/m² -
1788104119 28.33° C 81% 1010.9 hPa 0 mm 1.34 m/s, 216° 0 W/m² -
1788104058 28.33° C 81% 1010.7 hPa 0 mm 0.45 m/s, 196° 0 W/m² -
1788103997 28.33° C 81% 1010.8 hPa 0 mm 0.45 m/s, 211° 0 W/m² -
1788103936 28.33° C 81% 1010.8 hPa 0 mm 0.89 m/s, 208° 0 W/m² -
1788103875 28.33° C 81% 1010.9 hPa 0 mm 0.89 m/s, 249° 0 W/m² -
1788103814 28.33° C 81% 1010.6 hPa 0 mm 0 m/s 0 W/m² -
1788103753 28.33° C 81% 1011 hPa 0 mm 0.89 m/s, 184° 0 W/m² -
1788103631 28.33° C 81% 1010.8 hPa 0 mm 0.89 m/s, 255° 0 W/m² -

* Rain latest hour (hover to see other rain measurements)
** Current wind speed in m/s (hover to see current wind gust speed)